map of AAC home
Great Circle Mapper logo
AAC - Airport
Location
City:  El Arish, Shamal Sina (North Sinai), Egypt
Near (Alt.):Al Arish
Name:El Arish International Airport
ICAO / IATA:HEAR / AAC

Details
Type:Airport (Aerodrome, Airfield)
Use:Public/Civil, International (customs port of entry)
Latitude:3104'24"N (31.073333)
Longitude:3350'09"E (33.835833)
Datum:WGS 1984
Elevation:121 ft (37 m)
Variation:4.42E (WMM2015 magnetic declination)
0.08 annual change
Runways:1
Longest:9905 × 148 ft (3019 × 45 m), paved

Time
Time Zone:UTC+2 (DST+3)

Weather
METAR:HEAR 142000Z 11003KT CAVOK 14/13 Q1021 NOSIG

Related Locations
Nearby:
Farthest:NTAV: 11927 mi / 19194 km
Raivavae, Tubuai Islands, Austral Islands, PF

Find:

   beyond  
but within

Other Information
Maps:
NOTAMs:
Links:
Sources:

  
flag of Egypt
flag of Shamal Sina (North Sinai)
  

Sectional Chart

Flight Planning
at skyvector.com

Satellite Image

Google Maps Satellite view

 

Copyright © 2004-2016 Karl L. Swartz. All rights reserved.
The Great Circle Mapper name and logo are trademarks of the Great Circle Mapper.
All other trademarks mentioned herein belong to their respective owners.
Please see credits for attibutions and further copyright information.

  Follow gcmap on Facebook Follow gcmap on Twitter Follow gcmap on Google+ GCmap on LinkedIn

hCard Microformat

Geo Microformat